Regional Weather Roundup
Issued by NWS

Home | Current Version | Previous Version | Graphics & Text | Print | Product List | Glossary On
Versions: 1 2 3 4 5 6 7 8 9 10 11 12 13 14 15 16 17 18 19 20 21 22 23 24 25 26 27 28 29 30 31 32 33 34 35 36 37 38 39 40 41 42 43 44 45 46 47 48 49 50
000
ASUS43 KOAX 221410
RWRNE

WEATHER ROUNDUP FOR NEBRASKA
NATIONAL WEATHER SERVICE OMAHA NE
800 AM CST WED NOV 22 2017

NOTES: SATELLITE DATA IS BEING USED TO AUGMENT CLOUD COVER ABOVE
       12000 FEET.
       "FAIR" INDICATES FEW OR NO CLOUDS BELOW 12,000 FEET WITH NO
       SIGNIFICANT WEATHER AND/OR OBSTRUCTIONS TO VISIBILITY.


NEZ001>004-019>022-054>056-221500-
NEBRASKA PANHANDLE

CITY           SKY/WX    TMP DP  RH WIND       PRES   REMARKS
SCOTTSBLUFF    CLOUDY    28  24  85 CALM      30.14S
ALLIANCE       CLOUDY    29  29 100 SW7       30.12R WCI  22
CHADRON        CLOUDY    32  29  88 W5        30.10S WCI  27
GORDON         FAIR      33  28  80 CALM      30.09S
KIMBALL        CLOUDY    37  32  81 W13       30.19R WCI  29
SIDNEY         CLOUDY    37  32  82 W9        30.17S WCI  30
$$

NEZ057>060-069>072-079>082-221500-
SOUTHWEST NEBRASKA

CITY           SKY/WX    TMP DP  RH WIND       PRES   REMARKS
NORTH PLATTE   CLOUDY    28  20  71 S6        30.18F WCI  22
IMPERIAL       CLOUDY    30  26  85 SW5       30.17F WCI  25
LEXINGTON      CLOUDY    31  16  55 S8        30.22F WCI  23
MCCOOK         CLOUDY    30  21  69 S5        30.21F WCI  25
OGALLALA       CLOUDY    28  25  87 W7        30.16F WCI  21
$$

NEZ005>010-023>029-035>040-094-221500-
NORTH CENTRAL NEBRASKA

CITY           SKY/WX    TMP DP  RH WIND       PRES   REMARKS
VALENTINE      CLOUDY    28  22  78 W5        30.10F WCI  23
AINSWORTH      CLOUDY    29  19  66 SW13      30.11F WCI  19
BROKEN BOW     CLOUDY    28  14  55 S8        30.18F WCI  20
O`NEILL        CLOUDY    24  17  75 S12       30.19F WCI  13
ORD            CLOUDY    22  15  75 SE6       30.23F WCI  14
THEDFORD       CLOUDY    31  23  72 W5        30.15R WCI  26
$$

NEZ041-046>049-061>064-073>077-083>087-221500-
SOUTH CENTRAL NEBRASKA

CITY           SKY/WX    TMP DP  RH WIND       PRES   REMARKS
GRAND ISLAND   CLOUDY    21  15  78 S10       30.30F WCI  10
AURORA         CLOUDY    21  13  72 S10       30.31F WCI  10
HASTINGS       CLOUDY    19  12  74 S8        30.31F WCI   9
HEBRON         CLOUDY    18  13  81 CALM      30.38R
HOLDREGE       CLOUDY    25  16  68 S10G17    30.25F WCI  15
KEARNEY        CLOUDY    24  15  68 S8        30.28F WCI  15
YORK           CLOUDY    18  14  86 S6        30.33F WCI   9
$$

NEZ011>018-030>034-042>045-221500-
NORTHEAST NEBRASKA

CITY           SKY/WX    TMP DP  RH WIND       PRES   REMARKS
NORFOLK        CLOUDY    13  10  88 SE5       30.29F WCI   5
ALBION         CLOUDY    19  13  77 S5        30.28F WCI  12
BLAIR          CLOUDY    16  12  85 CALM      30.37S
COLUMBUS       CLEAR     16  12  84 SE5       30.35R WCI   9
FREMONT        CLOUDY    16  13  87 E3        30.37S
TEKAMAH        CLOUDY    11   6  81 S6        30.39R WCI   1
WAYNE          CLOUDY    13  10  84 S6        30.32S WCI   4
$$

NEZ050>053-065>068-078-088>093-221500-
SOUTHEAST NEBRASKA

CITY           SKY/WX    TMP DP  RH WIND       PRES   REMARKS
LINCOLN        CLOUDY    16  12  84 CALM      30.40R
OMAHA EPPLEY   CLOUDY    18  12  77 SE5       30.41R WCI  11
BEATRICE       CLOUDY    16  13  87 CALM      30.40R
FALLS CITY     CLOUDY    15  12  88 CALM      30.43R
NEBRASKA CITY  CLOUDY    17  14  88 CALM      30.41R
PLATTSMOUTH    CLOUDY    17  13  85 CALM      30.39S
$$

NEZ044-045-051>053-067-221500-
OMAHA AREA

CITY           SKY/WX    TMP DP  RH WIND       PRES   REMARKS
OMAHA EPPLEY   CLOUDY    18  12  77 SE5       30.41R WCI  11
BLAIR          CLOUDY    16  12  85 CALM      30.37S
FREMONT        CLOUDY    16  13  87 E3        30.37S
MILLARD        PTCLDY    18  14  86 CALM      30.41R
OFFUTT AFB     CLOUDY    15  12  85 S3        30.40R
PLATTSMOUTH    CLOUDY    17  13  85 CALM      30.39S
WAHOO          FAIR      15  11  85 CALM      30.38R
$$



USA.gov is the U.S. government's official web portal to all federal, state and local government web resources and services.